Change the Weather History Date:

Tuesday, May 14, 2013

  Actual Average Record
Temperature  
Mean Temperature 76 °F -  
Max Temperature 91 °F 72 °F 91 °F (2013)
Min Temperature 60 °F 52 °F 41 °F (1980)
Cooling Degree Days 10    
Growing Degree Days 26 (Base 50)    
Moisture  
Dew Point 51 °F    
Average Humidity 42    
Maximum Humidity 64    
Minimum Humidity 22    
Precipitation  
Precipitation 0.00 in - - ()
Sea Level Pressure  
Sea Level Pressure 29.80 in    
Wind  
Wind Speed 10 mph (SSW)    
Max Wind Speed 21 mph    
Max Gust Speed 29 mph    
Visibility 10 miles    
Events      
Averages and records for this station are not official NWS values.
T = Trace of Precipitation, MM = Missing Value Source: NWS Daily Summary

Daily Weather History Graph

Daily Weather History Graph

Search for Another Location

Airport or City:

Trip Planner

Search our weather history database for the weather conditions in past years. The results will help you decide how hot, cold, wet, or windy it might be!

Date:

Astronomy

May. 14, 2013 Rise Set
Actual Time 5:50 AM CDT 8:14 PM CDT
Civil Twilight 5:19 AM CDT 8:45 PM CDT
Nautical Twilight 4:40 AM CDT 9:23 PM CDT
Astronomical Twilight 3:58 AM CDT 10:06 PM CDT
Moon 9:30 AM CDT (5/14) No Moon Set
Length of Visible Light 15h 26m
Length of Day
14h 24m
Waxing Crescent, 19% of the Moon is Illuminated
May 14
Waxing Crescent
May 17
First Quarter
May 24
Full
May 31
Last Quarter
Jun 8
New

Hourly Weather History & Observations

Time (CDT) Temp. Heat Index Dew Point Humidity Pressure Visibility Wind Dir Wind Speed Gust Speed Precip Events Conditions
12:15 AM 62.6 °F - 39.2 °F 42% 29.94 in 10.0 mi SSE 8.1 mph - N/A   Clear
12:35 AM 62.6 °F - 39.2 °F 42% 29.93 in 10.0 mi SSE 8.1 mph - N/A   Clear
12:55 AM 62.6 °F - 39.2 °F 42% 29.93 in 10.0 mi SSE 4.6 mph - N/A   Clear
1:15 AM 62.6 °F - 39.2 °F 42% 29.92 in 10.0 mi South 6.9 mph - N/A   Clear
1:35 AM 62.6 °F - 41.0 °F 45% 29.91 in 10.0 mi South 5.8 mph - N/A   Clear
1:55 AM 62.6 °F - 41.0 °F 45% 29.91 in 10.0 mi South 4.6 mph - N/A   Clear
2:15 AM 62.6 °F - 42.8 °F 48% 29.90 in 10.0 mi South 8.1 mph - N/A   Clear
2:35 AM 62.6 °F - 42.8 °F 48% 29.89 in 10.0 mi South 9.2 mph - N/A   Clear
2:55 AM 62.6 °F - 42.8 °F 48% 29.88 in 10.0 mi South 9.2 mph - N/A   Clear
3:15 AM 62.6 °F - 44.6 °F 52% 29.88 in 10.0 mi South 8.1 mph - N/A   Clear
3:35 AM 62.6 °F - 44.6 °F 52% 29.87 in 10.0 mi SSW 10.4 mph - N/A   Clear
3:55 AM 62.6 °F - 46.4 °F 55% 29.86 in 10.0 mi SSW 9.2 mph - N/A   Clear
4:15 AM 62.6 °F - 46.4 °F 55% 29.85 in 10.0 mi SSW 10.4 mph - N/A   Clear
4:35 AM 62.6 °F - 46.4 °F 55% 29.85 in 10.0 mi SSW 9.2 mph - N/A   Clear
4:55 AM 60.8 °F - 46.4 °F 59% 29.85 in 10.0 mi SSW 9.2 mph - N/A   Clear
5:15 AM 60.8 °F - 48.2 °F 63% 29.85 in 10.0 mi SSW 9.2 mph - N/A   Clear
5:35 AM 60.8 °F - 48.2 °F 63% 29.85 in 10.0 mi SSW 9.2 mph - N/A   Clear
5:55 AM 60.8 °F - 48.2 °F 63% 29.84 in 10.0 mi SSW 10.4 mph - N/A   Clear
6:15 AM 60.8 °F - 48.2 °F 63% 29.85 in 10.0 mi SSW 8.1 mph - N/A   Clear
6:35 AM 60.8 °F - 48.2 °F 63% 29.84 in 10.0 mi SSW 9.2 mph - N/A   Clear
6:55 AM 62.6 °F - 48.2 °F 59% 29.84 in 10.0 mi SSW 9.2 mph - N/A   Clear
7:15 AM 62.6 °F - 50.0 °F 63% 29.84 in 10.0 mi SSW 10.4 mph - N/A   Clear
7:35 AM 64.4 °F - 51.8 °F 64% 29.84 in 10.0 mi SSW 10.4 mph - N/A   Clear
7:55 AM 66.2 °F - 51.8 °F 60% 29.84 in 10.0 mi SSW 8.1 mph - N/A   Clear
8:15 AM 66.2 °F - 51.8 °F 60% 29.83 in 10.0 mi SSW 9.2 mph - N/A   Clear
8:35 AM 68.0 °F - 53.6 °F 60% 29.84 in 10.0 mi SW 9.2 mph - N/A   Clear
8:55 AM 69.8 °F - 53.6 °F 56% 29.84 in 10.0 mi SW 10.4 mph - N/A   Clear
9:15 AM 71.6 °F - 55.4 °F 57% 29.83 in 10.0 mi WSW 11.5 mph - N/A   Clear
9:35 AM 73.4 °F - 55.4 °F 53% 29.83 in 10.0 mi WSW 10.4 mph - N/A   Clear
9:55 AM 75.2 °F - 55.4 °F 50% 29.82 in 10.0 mi West 13.8 mph - N/A   Clear
10:15 AM 77.0 °F - 57.2 °F 50% 29.82 in 10.0 mi West 10.4 mph 16.1 mph N/A   Clear
10:35 AM 78.8 °F - 57.2 °F 47% 29.83 in 10.0 mi West 9.2 mph - N/A   Clear
10:55 AM 80.6 °F 80.8 °F 57.2 °F 45% 29.83 in 10.0 mi WSW 5.8 mph - N/A   Clear
11:15 AM 80.6 °F 80.8 °F 57.2 °F 45% 29.83 in 10.0 mi SW 6.9 mph - N/A   Clear
11:35 AM 82.4 °F 82.0 °F 57.2 °F 42% 29.82 in 10.0 mi SW 3.5 mph - N/A   Clear
11:55 AM 82.4 °F 82.5 °F 59.0 °F 45% 29.82 in 10.0 mi SSW 8.1 mph - N/A   Clear
12:15 PM 84.2 °F 83.5 °F 57.2 °F 40% 29.82 in 10.0 mi SW 6.9 mph - N/A   Clear
12:35 PM 84.2 °F 83.8 °F 59.0 °F 42% 29.81 in 10.0 mi SSW 11.5 mph - N/A   Clear
12:55 PM 86.0 °F 85.4 °F 59.0 °F 40% 29.81 in 10.0 mi SW 10.4 mph - N/A   Clear
1:15 PM 86.0 °F 84.9 °F 57.2 °F 37% 29.80 in 10.0 mi SSW 8.1 mph - N/A   Clear
1:35 PM 87.8 °F 87.1 °F 59.0 °F 38% 29.80 in 10.0 mi South 10.4 mph - N/A   Clear
1:55 PM 87.8 °F 86.5 °F 57.2 °F 35% 29.79 in 10.0 mi SSW 13.8 mph - N/A   Clear
2:15 PM 89.6 °F 88.9 °F 59.0 °F 36% 29.78 in 10.0 mi SW 11.5 mph 16.1 mph N/A   Clear
2:35 PM 89.6 °F 88.9 °F 59.0 °F 36% 29.78 in 10.0 mi SW 13.8 mph - N/A   Clear
2:55 PM 89.6 °F 88.1 °F 57.2 °F 33% 29.77 in 10.0 mi SSW 12.7 mph 18.4 mph N/A   Clear
3:15 PM 89.6 °F 88.1 °F 57.2 °F 33% 29.76 in 10.0 mi SSW 18.4 mph - N/A   Clear
3:35 PM 91.4 °F 89.9 °F 57.2 °F 31% 29.76 in 10.0 mi SSW 19.6 mph 24.2 mph N/A   Clear
3:55 PM 91.4 °F 89.9 °F 57.2 °F 31% 29.75 in 10.0 mi SSW 12.7 mph 20.7 mph N/A   Clear
4:15 PM 89.6 °F 87.3 °F 53.6 °F 29% 29.75 in 10.0 mi SSW 17.3 mph 24.2 mph N/A   Clear
4:35 PM 91.4 °F - 51.8 °F 26% 29.74 in 10.0 mi SSW 18.4 mph 24.2 mph N/A   Clear
4:55 PM 89.6 °F - 50.0 °F 26% 29.74 in 10.0 mi SW 19.6 mph 27.6 mph N/A   Clear
5:15 PM 89.6 °F - 51.8 °F 27% 29.73 in 10.0 mi SW 13.8 mph 21.9 mph N/A   Clear
5:35 PM 89.6 °F - 48.2 °F 24% 29.73 in 10.0 mi SW 20.7 mph 24.2 mph N/A   Clear
5:55 PM 89.6 °F - 46.4 °F 22% 29.72 in 10.0 mi SW 20.7 mph 28.8 mph N/A   Clear
6:15 PM 89.6 °F - 48.2 °F 24% 29.72 in 10.0 mi SW 19.6 mph 26.5 mph N/A   Clear
6:35 PM 89.6 °F - 50.0 °F 26% 29.72 in 10.0 mi SW 16.1 mph 24.2 mph N/A   Clear
6:55 PM 87.8 °F - 50.0 °F 27% 29.71 in 10.0 mi SSW 17.3 mph 23.0 mph N/A   Clear
7:15 PM 87.8 °F - 51.8 °F 29% 29.71 in 10.0 mi SW 12.7 mph 19.6 mph N/A   Clear
7:35 PM 86.0 °F - 51.8 °F 31% 29.71 in 10.0 mi SSW 11.5 mph 18.4 mph N/A   Clear
7:55 PM 84.2 °F - 51.8 °F 33% 29.71 in 10.0 mi SSW 10.4 mph - N/A   Clear
8:15 PM 84.2 °F - 51.8 °F 33% 29.71 in 10.0 mi SSW 12.7 mph - N/A   Clear
8:35 PM 82.4 °F - 51.8 °F 35% 29.72 in 10.0 mi SSW 11.5 mph - N/A   Clear
8:55 PM 82.4 °F - 51.8 °F 35% 29.72 in 10.0 mi SSW 12.7 mph - N/A   Clear
9:15 PM 82.4 °F - 50.0 °F 32% 29.73 in 10.0 mi SW 12.7 mph - N/A   Clear
9:35 PM 80.6 °F - 50.0 °F 34% 29.74 in 10.0 mi SW 16.1 mph - N/A   Clear
9:55 PM 80.6 °F - 48.2 °F 32% 29.74 in 10.0 mi SW 16.1 mph 21.9 mph N/A   Clear
10:15 PM 80.6 °F - 48.2 °F 32% 29.75 in 10.0 mi SW 16.1 mph 20.7 mph N/A   Clear
10:35 PM 80.6 °F - 46.4 °F 30% 29.76 in 10.0 mi SW 16.1 mph 21.9 mph N/A   Clear
10:55 PM 80.6 °F - 46.4 °F 30% 29.76 in 10.0 mi SW 18.4 mph - N/A   Clear
11:15 PM 80.6 °F - 46.4 °F 30% 29.76 in 10.0 mi SW 18.4 mph 21.9 mph N/A   Clear
11:35 PM 80.6 °F - 46.4 °F 30% 29.76 in 10.0 mi SW 17.3 mph 25.3 mph N/A   Clear
11:55 PM 78.8 °F - 48.2 °F 34% 29.77 in 10.0 mi SW 19.6 mph 23.0 mph N/A   Clear